This is the latest recevied weather packets stored in our database for station/object KE0QIB. If no packets are shown the sender has not sent any weather packets the latest 10 day(s).
| Time | Temp. | Humidity | Pressure | Rain* | Wind** | Luminosity | Snow |
|---|---|---|---|---|---|---|---|
| 1778109109 | 11.67° C | 29% | 999.1 hPa | 0 mm | - | - | - |
| 1778108809 | 11.11° C | 28% | 999.4 hPa | 0 mm | - | - | - |
| 1778108509 | 11.11° C | 28% | 999.4 hPa | 0 mm | - | - | - |
| 1778108209 | 11.11° C | 29% | 999.4 hPa | 0 mm | - | - | - |
| 1778107909 | 10.56° C | 29% | 999.6 hPa | 0 mm | - | - | - |
| 1778107609 | 10.56° C | 28% | 999.6 hPa | 0 mm | - | - | - |
| 1778107309 | 10.56° C | 29% | 999.6 hPa | 0 mm | - | - | - |
| 1778107009 | 10.56° C | 29% | 999.7 hPa | 0 mm | - | - | - |
| 1778106709 | 10.56° C | 29% | 999.7 hPa | 0 mm | - | - | - |
| 1778106409 | 10.56° C | 28% | 999.7 hPa | 0 mm | - | - | - |
| 1778106109 | 10.56° C | 30% | 999.9 hPa | 0 mm | - | - | - |
| 1778105809 | 10.56° C | 29% | 999.9 hPa | 0 mm | - | - | - |
| 1778105509 | 10.56° C | 30% | 999.9 hPa | 0 mm | - | - | - |
| 1778105209 | 10.56° C | 30% | 1000.3 hPa | 0 mm | - | - | - |
| 1778104909 | 10.56° C | 30% | 1000.3 hPa | 0 mm | - | - | - |
| 1778104609 | 10.56° C | 29% | 1000.3 hPa | 0 mm | - | - | - |
| 1778104309 | 10.56° C | 30% | 1000.4 hPa | 0 mm | - | - | - |
| 1778104009 | 10.56° C | 29% | 1000.4 hPa | 0 mm | - | - | - |
| 1778103709 | 10.56° C | 29% | 1000.7 hPa | 0 mm | - | - | - |
| 1778103409 | 10.56° C | 31% | 1000.7 hPa | 0 mm | - | - | - |
| 1778103109 | 10.56° C | 30% | 1000.7 hPa | 0 mm | - | - | - |
| 1778102809 | 10.56° C | 28% | 1000.7 hPa | 0 mm | - | - | - |
| 1778102509 | 10.56° C | 29% | 1001 hPa | 0 mm | - | - | - |
| 1778102209 | 11.11° C | 30% | 1001 hPa | 0 mm | - | - | - |
| 1778101909 | 10.56° C | 33% | 1001 hPa | 0 mm | - | - | - |
* Rain latest hour (hover to see other rain measurements)
** Current wind speed in m/s (hover to see current wind gust speed)